Terminal Aerodrome Forecast
Issued by NWS

Home | Current Version | Previous Version | Text Only | Print | Product List | Glossary On
Versions: 1 2 3 4 5 6 7 8 9 10 11 12
427
FTPA31 PHFO 032349
TAFHOG
TAF
PHOG 032349Z 0400/0424 05018G28KT P6SM FEW030 SCT050
     FM040500 05011KT P6SM SCT030 SCT060
      AMD LTD TO VIS AND WIND 0409/0416=

USA.gov is the U.S. government's official web portal to all federal, state and local government web resources and services.